This is the latest recevied weather packets stored in our database for station/object WE1C. If no packets are shown the sender has not sent any weather packets the latest 10 day(s).
| Time | Temp. | Humidity | Pressure | Rain* | Wind** | Luminosity | Snow |
|---|---|---|---|---|---|---|---|
| 1778030612 | 17.78° C | 62% | 1038.4 hPa | 0 mm | - | 0 W/m² | - |
| 1778030309 | 17.78° C | 61% | 1038.1 hPa | 0 mm | - | 0 W/m² | - |
| 1778030006 | 17.78° C | 61% | 1038.2 hPa | 0 mm | - | 0 W/m² | - |
| 1778029703 | 18.33° C | 61% | 1038.2 hPa | 0 mm | - | 0 W/m² | - |
| 1778029401 | 18.33° C | 60% | 1038.1 hPa | 0 mm | - | 0 W/m² | - |
| 1778029098 | 18.33° C | 61% | 1038.2 hPa | 0 mm | - | 0 W/m² | - |
| 1778028795 | 18.33° C | 60% | 1038 hPa | 0 mm | - | 0 W/m² | - |
| 1778028491 | 18.33° C | 60% | 1038 hPa | 0 mm | - | 0 W/m² | - |
| 1778028189 | 18.89° C | 59% | 1038.2 hPa | 0 mm | - | 0 W/m² | - |
| 1778027884 | 18.89° C | 58% | 1038.1 hPa | 0 mm | - | 0 W/m² | - |
| 1778027581 | 18.89° C | 58% | 1038.2 hPa | 0 mm | - | 0 W/m² | - |
| 1778027277 | 18.89° C | 58% | 1038.1 hPa | 0 mm | - | 0 W/m² | - |
| 1778026974 | 18.89° C | 57% | 1038.3 hPa | 0 mm | - | 0 W/m² | - |
| 1778026669 | 19.44° C | 56% | 1037.9 hPa | 0 mm | - | 0 W/m² | - |
| 1778026367 | 19.44° C | 56% | 1037.9 hPa | 0 mm | - | 0 W/m² | - |
| 1778026063 | 19.44° C | 55% | 1037.5 hPa | 0 mm | - | 0 W/m² | - |
| 1778025761 | 20° C | 55% | 1037.5 hPa | 0 mm | - | 0 W/m² | - |
| 1778025458 | 20° C | 55% | 1037.6 hPa | 0 mm | - | 0 W/m² | - |
| 1778025156 | 20° C | 54% | 1037.5 hPa | 0 mm | - | 1 W/m² | - |
| 1778024852 | 20° C | 54% | 1037.3 hPa | 0 mm | - | 2 W/m² | - |
| 1778024550 | 20.56° C | 53% | 1037.2 hPa | 0 mm | - | 4 W/m² | - |
| 1778024246 | 20.56° C | 52% | 1037.3 hPa | 0 mm | - | 7 W/m² | - |
| 1778023944 | 20.56° C | 52% | 1037 hPa | 0 mm | - | 11 W/m² | - |
| 1778023641 | 21.11° C | 51% | 1037 hPa | 0 mm | - | 16 W/m² | - |
| 1778023338 | 21.11° C | 51% | 1037.1 hPa | 0 mm | - | 21 W/m² | - |
* Rain latest hour (hover to see other rain measurements)
** Current wind speed in m/s (hover to see current wind gust speed)